Time,TemperatureF,DewpointF,PressureIn,WindDirection,WindDirectionDegrees,WindSpeedMPH,WindSpeedGustMPH,Humidity,HourlyPrecipIn,Conditions,Clouds,dailyrainin,SoftwareType,DateUTC
2013-03-06 00:00:00,70.8,63.6,30.13,NE,39,1.0,2.0,78,0.00,CLR,CLR,0.00,WeatherDisplay:10.37,2013-03-05 13:00:00,
2013-03-06 00:05:00,70.7,63.5,30.13,NE,39,2.3,2.3,78,0.00,CLR,,0.00,WeatherDisplay:10.37,2013-03-05 13:05:00,
2013-03-06 00:10:00,70.6,63.4,30.12,NE,39,0.0,1.0,78,0.00,CLR,CLR,0.00,WeatherDisplay:10.37,2013-03-05 13:10:00,
2013-03-06 00:15:00,70.5,63.3,30.13,NE,39,0.0,1.0,78,0.00,CLR,CLR,0.00,WeatherDisplay:10.37,2013-03-05 13:15:00,
2013-03-06 00:20:00,70.3,63.5,30.13,NE,39,0.0,1.0,79,0.00,CLR,CLR,0.00,WeatherDisplay:10.37,2013-03-05 13:20:00,
2013-03-06 00:25:00,70.1,63.3,30.13,NE,39,0.0,0.0,79,0.00,CLR,CLR,0.00,WeatherDisplay:10.37,2013-03-05 13:25:00,
2013-03-06 00:30:00,69.9,63.1,30.13,NE,39,0.0,0.0,79,0.00,CLR,CLR,0.00,WeatherDisplay:10.37,2013-03-05 13:30:00,
2013-03-06 00:35:00,69.7,63.3,30.12,NE,39,0.0,0.0,80,0.00,CLR,,0.00,WeatherDisplay:10.37,2013-03-05 13:35:00,
2013-03-06 00:40:00,69.7,63.2,30.12,NE,39,0.0,0.0,80,0.00,CLR,CLR,0.00,WeatherDisplay:10.37,2013-03-05 13:40:00,
2013-03-06 00:45:00,69.5,63.4,30.12,NE,39,0.0,0.0,81,0.00,CLR,CLR,0.00,WeatherDisplay:10.37,2013-03-05 13:45:00,
2013-03-06 00:50:00,69.4,63.3,30.12,NE,39,0.0,0.0,81,0.00,CLR,CLR,0.00,WeatherDisplay:10.37,2013-03-05 13:50:00,
2013-03-06 00:55:00,69.3,63.2,30.12,NE,39,0.0,0.0,81,0.00,CLR,CLR,0.00,WeatherDisplay:10.37,2013-03-05 13:55:00,
2013-03-06 01:00:00,69.2,63.5,30.12,NE,39,0.0,0.0,82,0.00,CLR,CLR,0.00,WeatherDisplay:10.37,2013-03-05 14:00:00,
2013-03-06 01:05:00,69.1,63.4,30.12,NE,39,0.0,0.0,82,0.00,CLR,CLR,0.00,WeatherDisplay:10.37,2013-03-05 14:05:00,
2013-03-06 01:10:00,69.1,63.7,30.12,NE,39,0.0,0.0,83,0.00,CLR,CLR,0.00,WeatherDisplay:10.37,2013-03-05 14:10:00,
2013-03-06 01:15:00,69.0,63.6,30.12,NE,39,0.0,0.0,83,0.00,CLR,CLR,0.00,WeatherDisplay:10.37,2013-03-05 14:15:00,
2013-03-06 01:20:00,69.0,63.6,30.11,NE,39,0.0,0.0,83,0.00,CLR,CLR,0.00,WeatherDisplay:10.37,2013-03-05 14:20:00,
2013-03-06 01:25:00,69.0,63.6,30.11,NE,39,0.0,1.0,83,0.00,CLR,CLR,0.00,WeatherDisplay:10.37,2013-03-05 14:25:00,
2013-03-06 01:30:00,69.0,63.6,30.11,NE,39,0.0,1.0,83,0.00,CLR,CLR,0.00,WeatherDisplay:10.37,2013-03-05 14:30:00,
2013-03-06 01:35:00,69.0,63.6,30.11,NE,39,1.1,0.0,83,0.00,CLR,,0.00,WeatherDisplay:10.37,2013-03-05 14:35:00,
2013-03-06 01:40:00,69.1,63.7,30.11,NE,39,0.0,1.0,83,0.00,CLR,CLR,0.00,WeatherDisplay:10.37,2013-03-05 14:40:00,
2013-03-06 01:45:00,69.2,63.8,30.11,NE,39,0.0,1.0,83,0.00,CLR,CLR,0.00,WeatherDisplay:10.37,2013-03-05 14:45:00,
2013-03-06 01:50:00,69.4,64.0,30.11,NE,39,0.0,2.0,83,0.00,CLR,CLR,0.00,WeatherDisplay:10.37,2013-03-05 14:50:00,
2013-03-06 01:55:00,69.6,63.8,30.11,NE,39,0.0,2.0,82,0.00,CLR,CLR,0.00,WeatherDisplay:10.37,2013-03-05 14:55:00,
2013-03-06 02:00:00,69.7,64.0,30.11,NE,39,0.0,1.0,82,0.00,CLR,CLR,0.00,WeatherDisplay:10.37,2013-03-05 15:00:00,
2013-03-06 02:05:00,69.7,64.0,30.11,NE,39,0.0,0.0,82,0.00,CLR,CLR,0.00,WeatherDisplay:10.37,2013-03-05 15:05:00,
2013-03-06 02:10:00,69.8,64.1,30.11,NE,39,0.0,0.0,82,0.00,CLR,CLR,0.00,WeatherDisplay:10.37,2013-03-05 15:10:00,
2013-03-06 02:15:00,69.7,64.0,30.11,NE,39,0.0,0.0,82,0.00,CLR,CLR,0.00,WeatherDisplay:10.37,2013-03-05 15:15:00,
2013-03-06 02:20:00,69.6,63.9,30.10,NE,39,0.0,0.0,82,0.00,CLR,CLR,0.00,WeatherDisplay:10.37,2013-03-05 15:20:00,
2013-03-06 02:25:00,69.4,63.3,30.10,NE,39,0.0,0.0,81,0.00,CLR,,0.00,WeatherDisplay:10.37,2013-03-05 15:25:00,
2013-03-06 02:30:00,69.3,63.6,30.10,NE,39,0.0,0.0,82,0.00,CLR,CLR,0.00,WeatherDisplay:10.37,2013-03-05 15:30:00,
2013-03-06 02:35:00,69.1,63.7,30.10,NE,39,0.0,0.0,83,0.00,CLR,CLR,0.00,WeatherDisplay:10.37,2013-03-05 15:35:00,
2013-03-06 02:40:00,68.9,63.5,30.10,NE,39,0.0,0.0,83,0.00,CLR,CLR,0.00,WeatherDisplay:10.37,2013-03-05 15:40:00,
2013-03-06 02:45:00,68.6,63.3,30.10,NE,39,0.0,0.0,83,0.00,CLR,CLR,0.00,WeatherDisplay:10.37,2013-03-05 15:45:00,
2013-03-06 02:50:00,68.5,63.4,30.10,NE,39,0.0,0.0,84,0.00,CLR,CLR,0.00,WeatherDisplay:10.37,2013-03-05 15:50:00,
2013-03-06 02:55:00,68.2,63.2,30.10,NE,39,0.0,0.0,84,0.00,CLR,CLR,0.00,WeatherDisplay:10.37,2013-03-05 15:55:00,
2013-03-06 03:00:00,68.1,63.1,30.10,NE,39,0.0,0.0,84,0.00,CLR,CLR,0.00,WeatherDisplay:10.37,2013-03-05 16:00:00,
2013-03-06 03:05:00,67.9,63.2,30.10,NE,39,0.0,0.0,85,0.00,CLR,CLR,0.00,WeatherDisplay:10.37,2013-03-05 16:05:00,
2013-03-06 03:10:00,67.7,63.4,30.10,NE,39,0.0,0.0,86,0.00,CLR,CLR,0.00,WeatherDisplay:10.37,2013-03-05 16:10:00,
2013-03-06 03:15:00,67.6,63.3,30.09,NE,39,0.0,0.0,86,0.00,CLR,CLR,0.00,WeatherDisplay:10.37,2013-03-05 16:15:00,
2013-03-06 03:20:00,67.6,63.6,30.09,NE,39,0.0,0.0,87,0.00,CLR,CLR,0.00,WeatherDisplay:10.37,2013-03-05 16:20:00,
2013-03-06 03:25:00,67.6,63.9,30.09,NE,39,0.0,0.0,88,0.00,CLR,CLR,0.00,WeatherDisplay:10.37,2013-03-05 16:25:00,
2013-03-06 03:30:00,67.6,63.9,30.09,NE,39,0.0,0.0,88,0.00,CLR,CLR,0.00,WeatherDisplay:10.37,2013-03-05 16:30:00,
2013-03-06 03:35:00,67.5,63.8,30.09,NE,39,0.0,0.0,88,0.00,CLR,CLR,0.00,WeatherDisplay:10.37,2013-03-05 16:35:00,
2013-03-06 03:40:00,67.5,63.8,30.09,NE,39,0.0,0.0,88,0.00,CLR,CLR,0.00,WeatherDisplay:10.37,2013-03-05 16:40:00,
2013-03-06 03:45:00,67.4,63.7,30.09,NE,39,0.0,1.0,88,0.00,CLR,CLR,0.00,WeatherDisplay:10.37,2013-03-05 16:45:00,
2013-03-06 03:50:00,67.4,63.7,30.09,NE,39,0.0,1.0,88,0.00,CLR,CLR,0.00,WeatherDisplay:10.37,2013-03-05 16:50:00,
2013-03-06 03:55:00,67.2,63.5,30.09,NE,39,0.0,0.0,88,0.00,CLR,CLR,0.00,WeatherDisplay:10.37,2013-03-05 16:55:00,
2013-03-06 04:00:00,67.2,63.5,30.09,NE,39,0.0,0.0,88,0.00,CLR,CLR,0.00,WeatherDisplay:10.37,2013-03-05 17:00:00,
2013-03-06 04:05:00,67.2,63.5,30.09,NE,39,0.0,0.0,88,0.00,CLR,CLR,0.00,WeatherDisplay:10.37,2013-03-05 17:05:00,
2013-03-06 04:11:00,67.2,63.5,30.09,NE,39,0.0,0.0,88,0.00,CLR,CLR,0.00,WeatherDisplay:10.37,2013-03-05 17:11:00,
2013-03-06 04:16:00,67.3,63.6,30.09,NE,39,0.0,0.0,88,0.00,CLR,CLR,0.00,WeatherDisplay:10.37,2013-03-05 17:16:00,
2013-03-06 04:20:00,67.3,63.6,30.09,NE,39,0.0,0.0,88,0.00,CLR,CLR,0.00,WeatherDisplay:10.37,2013-03-05 17:20:00,
2013-03-06 04:26:00,67.4,63.7,30.09,NE,39,0.0,0.0,88,0.00,CLR,CLR,0.00,WeatherDisplay:10.37,2013-03-05 17:26:00,
2013-03-06 04:30:00,67.4,63.7,30.09,NE,39,0.0,0.0,88,0.00,CLR,CLR,0.00,WeatherDisplay:10.37,2013-03-05 17:30:00,
2013-03-06 04:36:00,67.3,63.6,30.09,NE,39,0.0,0.0,88,0.00,CLR,CLR,0.00,WeatherDisplay:10.37,2013-03-05 17:36:00,
2013-03-06 04:41:00,67.3,63.6,30.09,NE,39,0.0,0.0,88,0.00,CLR,CLR,0.00,WeatherDisplay:10.37,2013-03-05 17:41:00,
2013-03-06 04:46:00,67.3,63.6,30.09,NE,39,0.0,0.0,88,0.00,CLR,,0.00,WeatherDisplay:10.37,2013-03-05 17:46:00,
2013-03-06 04:51:00,67.2,63.5,30.09,NE,39,0.0,0.0,88,0.00,CLR,CLR,0.00,WeatherDisplay:10.37,2013-03-05 17:51:00,
2013-03-06 04:56:00,67.2,63.5,30.09,NE,39,0.0,1.0,88,0.00,CLR,CLR,0.00,WeatherDisplay:10.37,2013-03-05 17:56:00,
2013-03-06 05:01:00,67.0,63.6,30.09,NE,39,0.0,0.0,89,0.00,CLR,,0.00,WeatherDisplay:10.37,2013-03-05 18:01:00,
2013-03-06 05:06:00,66.7,63.4,30.09,NE,39,0.0,0.0,89,0.00,CLR,,0.00,WeatherDisplay:10.37,2013-03-05 18:06:00,
2013-03-06 05:11:00,66.5,63.2,30.09,NE,39,0.0,0.0,89,0.00,CLR,,0.00,WeatherDisplay:10.37,2013-03-05 18:11:00,
2013-03-06 05:16:00,66.3,63.3,30.09,NE,39,0.0,0.0,90,0.00,CLR,,0.00,WeatherDisplay:10.37,2013-03-05 18:16:00,
2013-03-06 05:22:00,66.2,63.2,30.10,NE,39,1.1,0.0,90,0.00,CLR,,0.00,WeatherDisplay:10.37,2013-03-05 18:22:00,
2013-03-06 05:27:00,66.0,63.3,30.09,NE,39,0.0,0.0,91,0.00,CLR,,0.00,WeatherDisplay:10.37,2013-03-05 18:27:00,
2013-03-06 05:32:00,65.9,63.2,30.10,NE,40,0.0,0.0,91,0.00,CLR,,0.00,WeatherDisplay:10.37,2013-03-05 18:32:00,
2013-03-06 05:38:00,65.8,63.1,30.10,NE,39,1.1,1.1,91,0.00,CLR,,0.00,WeatherDisplay:10.37,2013-03-05 18:38:00,
2013-03-06 05:43:00,65.8,63.1,30.10,North,359,2.3,0.0,91,0.00,CLR,,0.00,WeatherDisplay:10.37,2013-03-05 18:43:00,
2013-03-06 05:48:00,65.8,63.1,30.10,North,359,1.1,1.1,91,0.00,CLR,,0.00,WeatherDisplay:10.37,2013-03-05 18:48:00,
2013-03-06 05:53:00,65.6,62.9,30.09,North,359,1.1,0.0,91,0.00,CLR,,0.00,WeatherDisplay:10.37,2013-03-05 18:53:00,
2013-03-06 05:58:00,65.4,63.0,30.10,North,359,1.1,0.0,92,0.00,CLR,,0.00,WeatherDisplay:10.37,2013-03-05 18:58:00,
2013-03-06 06:04:00,65.3,62.6,30.10,North,359,0.0,0.0,91,0.00,CLR,,0.00,WeatherDisplay:10.37,2013-03-05 19:04:00,
2013-03-06 06:09:00,65.1,62.4,30.10,North,359,0.0,0.0,91,0.00,CLR,,0.00,WeatherDisplay:10.37,2013-03-05 19:09:00,
2013-03-06 06:14:00,65.1,62.7,30.10,North,359,0.0,0.0,92,0.00,CLR,,0.00,WeatherDisplay:10.37,2013-03-05 19:14:00,
2013-03-06 06:19:00,65.0,62.6,30.10,North,359,0.0,0.0,92,0.00,CLR,,0.00,WeatherDisplay:10.37,2013-03-05 19:19:00,
2013-03-06 06:25:00,64.9,62.5,30.10,North,359,1.1,1.1,92,0.00,CLR,,0.00,WeatherDisplay:10.37,2013-03-05 19:25:00,
2013-03-06 06:30:00,64.8,62.4,30.10,North,359,0.0,0.0,92,0.00,CLR,,0.00,WeatherDisplay:10.37,2013-03-05 19:30:00,
2013-03-06 06:35:00,64.6,62.2,30.10,North,359,0.0,0.0,92,0.00,CLR,,0.00,WeatherDisplay:10.37,2013-03-05 19:35:00,
2013-03-06 06:41:00,64.4,62.3,30.10,North,359,1.1,1.1,93,0.00,CLR,,0.00,WeatherDisplay:10.37,2013-03-05 19:41:00,
2013-03-06 06:46:00,64.3,62.2,30.10,North,358,1.0,2.0,93,0.00,CLR,CLR,0.00,WeatherDisplay:10.37,2013-03-05 19:46:00,
2013-03-06 06:51:00,64.4,62.3,30.10,North,358,0.0,2.0,93,0.00,CLR,CLR,0.00,WeatherDisplay:10.37,2013-03-05 19:51:00,
2013-03-06 06:56:00,64.5,62.4,30.11,North,359,0.0,0.0,93,0.00,CLR,,0.00,WeatherDisplay:10.37,2013-03-05 19:56:00,
2013-03-06 07:01:00,64.5,62.4,30.11,North,359,0.0,2.0,93,0.00,CLR,CLR,0.00,WeatherDisplay:10.37,2013-03-05 20:01:00,
2013-03-06 07:06:00,64.6,62.5,30.11,North,359,0.0,1.0,93,0.00,CLR,CLR,0.00,WeatherDisplay:10.37,2013-03-05 20:06:00,
2013-03-06 07:11:00,64.7,62.6,30.11,North,359,0.0,0.0,93,0.00,CLR,CLR,0.00,WeatherDisplay:10.37,2013-03-05 20:11:00,
2013-03-06 07:16:00,64.7,62.6,30.11,North,359,0.0,0.0,93,0.00,CLR,CLR,0.00,WeatherDisplay:10.37,2013-03-05 20:16:00,
2013-03-06 07:21:00,64.7,62.6,30.11,North,359,0.0,0.0,93,0.00,CLR,CLR,0.00,WeatherDisplay:10.37,2013-03-05 20:21:00,
2013-03-06 07:26:00,64.9,62.8,30.12,North,359,0.0,1.0,93,0.00,CLR,CLR,0.00,WeatherDisplay:10.37,2013-03-05 20:26:00,
2013-03-06 07:31:00,65.1,63.0,30.12,North,358,1.0,2.0,93,0.00,CLR,CLR,0.00,WeatherDisplay:10.37,2013-03-05 20:31:00,
2013-03-06 07:36:00,65.2,63.1,30.11,North,359,2.3,2.3,93,0.00,CLR,,0.00,WeatherDisplay:10.37,2013-03-05 20:36:00,
2013-03-06 07:41:00,65.3,62.9,30.12,North,359,1.1,0.0,92,0.00,CLR,,0.00,WeatherDisplay:10.37,2013-03-05 20:41:00,
2013-03-06 07:47:00,65.6,62.9,30.12,North,359,1.1,1.1,91,0.00,CLR,,0.00,WeatherDisplay:10.37,2013-03-05 20:47:00,
2013-03-06 07:52:00,66.1,63.1,30.12,North,359,0.0,0.0,90,0.00,CLR,,0.00,WeatherDisplay:10.37,2013-03-05 20:52:00,
2013-03-06 07:57:00,66.3,63.0,30.12,North,359,0.0,0.0,89,0.00,CLR,,0.00,WeatherDisplay:10.37,2013-03-05 20:57:00,
2013-03-06 08:02:00,66.7,63.4,30.12,North,359,1.0,0.0,89,0.00,CLR,,0.00,WeatherDisplay:10.37,2013-03-05 21:02:00,
2013-03-06 08:07:00,67.0,63.3,30.12,North,359,0.0,0.0,88,0.00,CLR,,0.00,WeatherDisplay:10.37,2013-03-05 21:07:00,
2013-03-06 08:13:00,67.4,63.7,30.12,North,359,0.0,0.0,88,0.00,CLR,,0.00,WeatherDisplay:10.37,2013-03-05 21:13:00,
2013-03-06 08:18:00,67.8,63.8,30.12,North,359,1.1,1.1,87,0.00,CLR,,0.00,WeatherDisplay:10.37,2013-03-05 21:18:00,
2013-03-06 08:23:00,68.2,64.5,30.13,North,359,0.0,0.0,88,0.00,CLR,,0.00,WeatherDisplay:10.37,2013-03-05 21:23:00,
2013-03-06 08:29:00,68.5,64.5,30.13,North,359,0.0,0.0,87,0.00,CLR,,0.00,WeatherDisplay:10.37,2013-03-05 21:29:00,
2013-03-06 08:34:00,68.7,64.7,30.13,North,359,0.0,0.0,87,0.00,CLR,,0.00,WeatherDisplay:10.37,2013-03-05 21:34:00,
2013-03-06 08:39:00,69.0,65.0,30.13,North,349,1.1,0.0,87,0.00,CLR,,0.00,WeatherDisplay:10.37,2013-03-05 21:39:00,
2013-03-06 08:44:00,69.3,64.6,30.13,North,354,2.3,2.3,85,0.00,CLR,,0.00,WeatherDisplay:10.37,2013-03-05 21:44:00,
2013-03-06 08:49:00,69.7,65.0,30.13,North,354,1.1,1.1,85,0.00,CLR,,0.00,WeatherDisplay:10.37,2013-03-05 21:49:00,
2013-03-06 08:55:00,70.0,64.6,30.13,North,353,0.0,1.0,83,0.00,CLR,CLR,0.00,WeatherDisplay:10.37,2013-03-05 21:55:00,
2013-03-06 09:00:00,70.3,64.2,30.13,NNE,26,4.0,4.0,81,0.00,CLR,,0.00,WeatherDisplay:10.37,2013-03-05 22:00:00,
2013-03-06 09:05:00,70.5,64.4,30.14,North,7,3.0,8.0,81,0.00,CLR,CLR,0.00,WeatherDisplay:10.37,2013-03-05 22:05:00,
2013-03-06 09:10:00,70.6,64.8,30.14,North,359,1.0,4.0,82,0.00,CLR,CLR,0.00,WeatherDisplay:10.37,2013-03-05 22:10:00,
2013-03-06 09:15:00,70.6,65.5,30.14,NNW,343,3.5,3.5,84,0.00,CLR,,0.00,WeatherDisplay:10.37,2013-03-05 22:15:00,
2013-03-06 09:20:00,70.6,65.6,30.14,NNW,345,1.0,2.0,84,0.00,CLR,CLR,0.00,WeatherDisplay:10.37,2013-03-05 22:20:00,
2013-03-06 09:25:00,70.8,66.1,30.14,NNW,343,1.0,2.0,85,0.00,CLR,CLR,0.00,WeatherDisplay:10.37,2013-03-05 22:25:00,
2013-03-06 09:30:00,71.0,66.3,30.13,NNW,335,1.0,3.0,85,0.00,CLR,CLR,0.00,WeatherDisplay:10.37,2013-03-05 22:30:00,
2013-03-06 09:35:00,71.5,66.1,30.14,NNW,328,0.0,3.0,83,0.00,CLR,CLR,0.00,WeatherDisplay:10.37,2013-03-05 22:35:00,
2013-03-06 09:40:00,71.8,65.7,30.14,NNW,328,0.0,2.0,81,0.00,CLR,CLR,0.00,WeatherDisplay:10.37,2013-03-05 22:40:00,
2013-03-06 09:45:00,72.2,65.7,30.14,NW,317,0.0,3.0,80,0.00,CLR,CLR,0.00,WeatherDisplay:10.37,2013-03-05 22:45:00,
2013-03-06 09:50:00,72.8,66.2,30.14,NW,309,2.0,3.0,80,0.00,CLR,CLR,0.00,WeatherDisplay:10.37,2013-03-05 22:50:00,
2013-03-06 09:55:00,73.3,66.0,30.14,NW,309,1.0,2.0,78,0.00,CLR,CLR,0.00,WeatherDisplay:10.37,2013-03-05 22:55:00,
2013-03-06 10:00:00,73.8,66.1,30.14,NNW,328,1.0,3.0,77,0.00,CLR,CLR,0.00,WeatherDisplay:10.37,2013-03-05 23:00:00,
2013-03-06 10:05:00,74.2,66.2,30.14,NW,322,2.0,4.0,76,0.00,CLR,CLR,0.00,WeatherDisplay:10.37,2013-03-05 23:05:00,
2013-03-06 10:10:00,74.4,65.6,30.14,NE,35,3.0,6.0,74,0.00,CLR,CLR,0.00,WeatherDisplay:10.37,2013-03-05 23:10:00,
2013-03-06 10:15:00,74.2,65.8,30.14,North,359,3.5,3.5,75,0.00,CLR,,0.00,WeatherDisplay:10.37,2013-03-05 23:15:00,
2013-03-06 10:20:00,74.0,66.0,30.14,NNE,13,5.0,7.0,76,0.00,CLR,CLR,0.00,WeatherDisplay:10.37,2013-03-05 23:20:00,
2013-03-06 10:25:00,72.9,66.4,30.14,NNE,24,3.0,10.0,80,0.00,CLR,CLR,0.00,WeatherDisplay:10.37,2013-03-05 23:25:00,
2013-03-06 10:30:00,72.2,67.1,30.14,NNE,20,3.0,5.0,84,0.00,CLR,CLR,0.00,WeatherDisplay:10.37,2013-03-05 23:30:00,
2013-03-06 10:35:00,72.0,66.9,30.14,WNW,297,3.0,6.0,84,0.00,CLR,CLR,0.00,WeatherDisplay:10.37,2013-03-05 23:35:00,
2013-03-06 10:40:00,72.1,67.0,30.13,WSW,254,0.0,4.0,84,0.00,CLR,CLR,0.00,WeatherDisplay:10.37,2013-03-05 23:40:00,
2013-03-06 10:45:00,72.3,67.2,30.13,WSW,241,1.0,3.0,84,0.00,CLR,CLR,0.00,WeatherDisplay:10.37,2013-03-05 23:45:00,
2013-03-06 10:50:00,72.6,66.1,30.13,WSW,241,1.0,3.0,80,0.00,CLR,CLR,0.00,WeatherDisplay:10.37,2013-03-05 23:50:00,
2013-03-06 10:55:00,73.4,66.1,30.13,WSW,242,1.0,3.0,78,0.00,CLR,CLR,0.00,WeatherDisplay:10.37,2013-03-05 23:55:00,
2013-03-06 11:00:00,74.2,65.8,30.13,North,7,1.0,5.0,75,0.00,CLR,CLR,0.00,WeatherDisplay:10.37,2013-03-06 00:00:00,
2013-03-06 11:05:00,74.9,65.7,30.13,NNE,27,1.0,5.0,73,0.00,CLR,CLR,0.00,WeatherDisplay:10.37,2013-03-06 00:05:00,
2013-03-06 11:10:00,75.7,66.1,30.13,North,5,2.0,5.0,72,0.00,CLR,CLR,0.00,WeatherDisplay:10.37,2013-03-06 00:10:00,
2013-03-06 11:15:00,76.6,66.1,30.13,North,349,2.0,4.0,70,0.00,CLR,CLR,0.00,WeatherDisplay:10.37,2013-03-06 00:15:00,
2013-03-06 11:20:00,76.8,65.9,30.12,North,350,3.5,3.5,69,0.00,CLR,,0.00,WeatherDisplay:10.37,2013-03-06 00:20:00,
2013-03-06 11:25:00,77.3,66.3,30.12,North,350,1.0,3.0,69,0.00,CLR,CLR,0.00,WeatherDisplay:10.37,2013-03-06 00:25:00,
2013-03-06 11:30:00,77.6,66.2,30.12,North,359,1.0,3.0,68,0.00,CLR,CLR,0.00,WeatherDisplay:10.37,2013-03-06 00:30:00,
2013-03-06 11:35:00,77.7,65.5,30.12,North,3,1.0,3.0,66,0.00,CLR,CLR,0.00,WeatherDisplay:10.37,2013-03-06 00:35:00,
2013-03-06 11:40:00,77.8,65.1,30.12,NNE,13,2.0,5.0,65,0.00,CLR,CLR,0.00,WeatherDisplay:10.37,2013-03-06 00:40:00,
2013-03-06 11:45:00,77.8,65.6,30.12,NNE,25,1.0,4.0,66,0.00,CLR,CLR,0.00,WeatherDisplay:10.37,2013-03-06 00:45:00,
2013-03-06 11:50:00,78.0,65.3,30.11,North,7,2.0,5.0,65,0.00,CLR,CLR,0.00,WeatherDisplay:10.37,2013-03-06 00:50:00,
2013-03-06 11:55:00,78.1,65.4,30.11,NNE,26,1.0,5.0,65,0.00,CLR,CLR,0.00,WeatherDisplay:10.37,2013-03-06 00:55:00,
2013-03-06 12:00:00,78.0,65.3,30.11,ENE,64,3.5,3.5,65,0.00,CLR,,0.00,WeatherDisplay:10.37,2013-03-06 01:00:00,
2013-03-06 12:05:00,78.0,65.3,30.11,North,354,3.5,3.5,65,0.00,CLR,,0.00,WeatherDisplay:10.37,2013-03-06 01:05:00,
2013-03-06 12:11:00,78.2,66.3,30.10,ENE,75,3.5,3.5,67,0.00,CLR,,0.00,WeatherDisplay:10.37,2013-03-06 01:11:00,
2013-03-06 12:16:00,78.3,66.0,30.10,ENE,57,2.3,2.3,66,0.00,CLR,,0.00,WeatherDisplay:10.37,2013-03-06 01:16:00,
2013-03-06 12:21:00,78.9,66.1,30.10,NE,47,4.6,4.6,65,0.00,CLR,,0.00,WeatherDisplay:10.37,2013-03-06 01:21:00,
2013-03-06 12:26:00,78.9,64.8,30.10,WNW,301,3.5,3.5,62,0.00,CLR,,0.00,WeatherDisplay:10.37,2013-03-06 01:26:00,
2013-03-06 12:31:00,79.2,66.0,30.09,WNW,302,3.5,3.5,64,0.00,CLR,,0.00,WeatherDisplay:10.37,2013-03-06 01:31:00,
2013-03-06 12:37:00,80.1,65.9,30.09,North,354,3.5,3.5,62,0.00,CLR,,0.00,WeatherDisplay:10.37,2013-03-06 01:37:00,
2013-03-06 12:42:00,80.9,66.2,30.09,WSW,247,2.3,2.3,61,0.00,CLR,,0.00,WeatherDisplay:10.37,2013-03-06 01:42:00,
2013-03-06 12:47:00,80.7,65.5,30.09,NNW,342,2.3,2.3,60,0.00,CLR,,0.00,WeatherDisplay:10.37,2013-03-06 01:47:00,
2013-03-06 12:53:00,80.1,65.4,30.08,ENE,58,4.0,4.0,61,0.00,CLR,,0.00,WeatherDisplay:10.37,2013-03-06 01:53:00,
2013-03-06 12:58:00,79.7,66.0,30.08,NNE,14,4.6,4.7,63,0.00,CLR,,0.00,WeatherDisplay:10.37,2013-03-06 01:58:00,
2013-03-06 13:03:00,79.7,65.5,30.08,ENE,57,9.2,9.2,62,0.00,CLR,,0.00,WeatherDisplay:10.37,2013-03-06 02:03:00,
2013-03-06 13:08:00,79.0,65.3,30.08,NE,52,2.3,2.3,63,0.00,CLR,,0.00,WeatherDisplay:10.37,2013-03-06 02:08:00,
2013-03-06 13:14:00,79.1,65.4,30.08,NE,52,2.0,2.0,63,0.00,CLR,,0.00,WeatherDisplay:10.37,2013-03-06 02:14:00,
2013-03-06 13:19:00,79.4,65.2,30.08,ENE,62,2.3,2.3,62,0.00,CLR,,0.00,WeatherDisplay:10.37,2013-03-06 02:19:00,
2013-03-06 13:24:00,80.3,65.6,30.07,NE,39,3.5,3.5,61,0.00,CLR,,0.00,WeatherDisplay:10.37,2013-03-06 02:24:00,
2013-03-06 13:29:00,81.2,65.0,30.07,NE,44,3.5,3.5,58,0.00,CLR,,0.00,WeatherDisplay:10.37,2013-03-06 02:29:00,
2013-03-06 13:35:00,81.6,63.9,30.07,NNE,27,8.1,8.1,55,0.00,CLR,,0.00,WeatherDisplay:10.37,2013-03-06 02:35:00,
2013-03-06 13:40:00,80.9,63.7,30.07,NE,43,10.0,10.0,56,0.00,CLR,,0.00,WeatherDisplay:10.37,2013-03-06 02:40:00,
2013-03-06 13:45:00,79.6,66.3,30.07,NE,50,6.0,12.0,64,0.00,CLR,CLR,0.00,WeatherDisplay:10.37,2013-03-06 02:45:00,
2013-03-06 13:50:00,78.7,66.4,30.07,NE,52,5.0,9.0,66,0.00,CLR,CLR,0.00,WeatherDisplay:10.37,2013-03-06 02:50:00,
2013-03-06 13:55:00,78.8,66.0,30.07,NE,56,3.0,10.0,65,0.00,CLR,CLR,0.00,WeatherDisplay:10.37,2013-03-06 02:55:00,
2013-03-06 14:00:00,79.2,65.5,30.07,NE,49,5.0,10.0,63,0.00,CLR,CLR,0.00,WeatherDisplay:10.37,2013-03-06 03:00:00,
2013-03-06 14:05:00,79.4,64.3,30.06,NE,48,7.0,14.0,60,0.00,CLR,CLR,0.00,WeatherDisplay:10.37,2013-03-06 03:05:00,
2013-03-06 14:10:00,79.2,64.6,30.06,NE,50,3.0,12.0,61,0.00,CLR,CLR,0.00,WeatherDisplay:10.37,2013-03-06 03:10:00,
2013-03-06 14:15:00,79.8,64.7,30.06,NE,54,3.0,12.0,60,0.00,CLR,CLR,0.00,WeatherDisplay:10.37,2013-03-06 03:15:00,
2013-03-06 14:20:00,80.1,64.9,30.06,NE,55,3.0,8.0,60,0.00,CLR,CLR,0.00,WeatherDisplay:10.37,2013-03-06 03:20:00,
2013-03-06 14:25:00,80.2,64.6,30.06,NE,51,3.0,10.0,59,0.00,CLR,CLR,0.00,WeatherDisplay:10.37,2013-03-06 03:25:00,
2013-03-06 14:30:00,79.9,64.8,30.06,NE,44,3.0,12.0,60,0.00,CLR,CLR,0.00,WeatherDisplay:10.37,2013-03-06 03:30:00,
2013-03-06 14:35:00,79.9,64.8,30.06,NNE,31,5.0,9.0,60,0.00,CLR,CLR,0.00,WeatherDisplay:10.37,2013-03-06 03:35:00,
2013-03-06 14:40:00,80.2,65.1,30.06,NE,43,5.0,8.0,60,0.00,CLR,CLR,0.00,WeatherDisplay:10.37,2013-03-06 03:40:00,
2013-03-06 14:45:00,80.5,64.9,30.06,NE,50,7.0,12.0,59,0.00,CLR,CLR,0.00,WeatherDisplay:10.37,2013-03-06 03:45:00,
2013-03-06 14:50:00,80.7,66.0,30.05,NE,49,3.0,8.0,61,0.00,CLR,CLR,0.00,WeatherDisplay:10.37,2013-03-06 03:50:00,
2013-03-06 14:55:00,81.0,65.8,30.05,NE,45,6.0,10.0,60,0.00,CLR,CLR,0.00,WeatherDisplay:10.37,2013-03-06 03:55:00,
2013-03-06 15:00:00,80.6,65.4,30.05,ENE,57,5.0,10.0,60,0.00,CLR,CLR,0.00,WeatherDisplay:10.37,2013-03-06 04:00:00,
2013-03-06 15:05:00,80.3,66.1,30.05,ENE,58,2.0,8.0,62,0.00,CLR,CLR,0.00,WeatherDisplay:10.37,2013-03-06 04:05:00,
2013-03-06 15:10:00,80.1,65.4,30.05,NE,43,5.0,10.0,61,0.00,CLR,CLR,0.00,WeatherDisplay:10.37,2013-03-06 04:10:00,
2013-03-06 15:15:00,80.5,66.3,30.05,NE,55,8.1,8.1,62,0.00,CLR,,0.00,WeatherDisplay:10.37,2013-03-06 04:15:00,
2013-03-06 15:20:00,80.7,66.0,30.05,East,100,8.1,8.1,61,0.00,CLR,,0.00,WeatherDisplay:10.37,2013-03-06 04:20:00,
2013-03-06 15:25:00,80.7,66.0,30.05,ENE,61,8.1,8.1,61,0.00,CLR,,0.00,WeatherDisplay:10.37,2013-03-06 04:25:00,
2013-03-06 15:31:00,80.5,65.8,30.04,NNE,22,9.2,9.2,61,0.00,CLR,,0.00,WeatherDisplay:10.37,2013-03-06 04:31:00,
2013-03-06 15:36:00,80.4,67.1,30.04,NE,50,7.0,7.0,64,0.00,CLR,,0.00,WeatherDisplay:10.37,2013-03-06 04:36:00,
2013-03-06 15:41:00,80.9,67.1,30.04,ENE,66,3.5,4.6,63,0.00,CLR,,0.00,WeatherDisplay:10.37,2013-03-06 04:41:00,
2013-03-06 15:46:00,80.9,66.2,30.04,NE,54,4.6,4.6,61,0.00,CLR,,0.00,WeatherDisplay:10.37,2013-03-06 04:46:00,
2013-03-06 15:52:00,80.8,67.0,30.04,ENE,77,9.2,9.2,63,0.00,CLR,,0.00,WeatherDisplay:10.37,2013-03-06 04:52:00,
2013-03-06 15:57:00,80.5,66.7,30.04,ENE,60,5.8,5.8,63,0.00,CLR,,0.00,WeatherDisplay:10.37,2013-03-06 04:57:00,
2013-03-06 16:00:00,80.5,66.7,30.04,ENE,59,11.5,11.5,63,0.00,CLR,,0.00,WeatherDisplay:10.37,2013-03-06 05:00:00,
2013-03-06 16:05:00,80.4,66.2,30.04,ENE,57,6.0,10.0,62,0.00,CLR,CLR,0.00,WeatherDisplay:10.37,2013-03-06 05:05:00,
2013-03-06 16:34:00,79.0,67.1,30.03,NE,55,8.1,8.1,67,0.00,CLR,,0.00,WeatherDisplay:10.37,2013-03-06 05:34:00,
2013-03-06 16:39:00,79.1,66.8,30.04,NE,50,9.2,9.2,66,0.00,CLR,,0.00,WeatherDisplay:10.37,2013-03-06 05:39:00,
2013-03-06 16:44:00,79.1,65.9,30.04,ENE,67,5.8,5.8,64,0.00,CLR,,0.00,WeatherDisplay:10.37,2013-03-06 05:44:00,
2013-03-06 16:49:00,79.5,65.8,30.03,NE,49,12.0,12.0,63,0.00,CLR,,0.00,WeatherDisplay:10.37,2013-03-06 05:49:00,
2013-03-06 16:55:00,79.3,65.1,30.03,NE,45,9.2,9.2,62,0.00,CLR,,0.00,WeatherDisplay:10.37,2013-03-06 05:55:00,
2013-03-06 17:00:00,79.3,64.7,30.03,ENE,57,9.2,9.2,61,0.00,CLR,,0.00,WeatherDisplay:10.37,2013-03-06 06:00:00,
2013-03-06 17:05:00,79.5,63.9,30.03,ENE,65,5.0,10.0,59,0.00,CLR,CLR,0.00,WeatherDisplay:10.37,2013-03-06 06:05:00,
2013-03-06 17:10:00,79.6,62.5,30.03,NNE,30,8.1,8.1,56,0.00,CLR,,0.00,WeatherDisplay:10.37,2013-03-06 06:10:00,
2013-03-06 17:15:00,79.4,62.8,30.03,ENE,68,3.5,3.5,57,0.00,CLR,,0.00,WeatherDisplay:10.37,2013-03-06 06:15:00,
2013-03-06 17:20:00,79.4,62.8,30.03,NE,50,8.1,8.1,57,0.00,CLR,,0.00,WeatherDisplay:10.37,2013-03-06 06:20:00,
2013-03-06 17:25:00,79.3,63.2,30.03,NE,41,11.5,11.5,58,0.00,CLR,,0.00,WeatherDisplay:10.37,2013-03-06 06:25:00,
2013-03-06 17:31:00,79.1,62.6,30.03,NE,51,6.0,6.0,57,0.00,CLR,,0.00,WeatherDisplay:10.37,2013-03-06 06:31:00,
2013-03-06 17:36:00,79.0,63.9,30.04,NE,40,4.6,4.6,60,0.00,CLR,,0.00,WeatherDisplay:10.37,2013-03-06 06:36:00,
2013-03-06 17:41:00,78.6,64.5,30.04,ENE,71,8.1,8.1,62,0.00,CLR,,0.00,WeatherDisplay:10.37,2013-03-06 06:41:00,
2013-03-06 17:46:00,78.3,64.7,30.05,NE,51,4.6,4.6,63,0.00,CLR,,0.00,WeatherDisplay:10.37,2013-03-06 06:46:00,
2013-03-06 17:51:00,78.5,65.3,30.04,NE,55,6.9,6.9,64,0.00,CLR,,0.00,WeatherDisplay:10.37,2013-03-06 06:51:00,
2013-03-06 17:57:00,78.1,65.4,30.05,ENE,65,8.1,8.1,65,0.00,CLR,,0.00,WeatherDisplay:10.37,2013-03-06 06:57:00,
2013-03-06 18:02:00,77.9,64.7,30.05,NE,50,9.2,9.2,64,0.00,CLR,,0.00,WeatherDisplay:10.37,2013-03-06 07:02:00,
2013-03-06 18:07:00,77.9,64.7,30.05,North,359,9.2,9.2,64,0.00,CLR,,0.00,WeatherDisplay:10.37,2013-03-06 07:07:00,
2013-03-06 18:13:00,77.9,65.2,30.05,NE,40,6.0,6.0,65,0.00,CLR,,0.00,WeatherDisplay:10.37,2013-03-06 07:13:00,
2013-03-06 18:18:00,77.8,65.1,30.05,NNE,18,6.9,6.9,65,0.00,CLR,,0.00,WeatherDisplay:10.37,2013-03-06 07:18:00,
2013-03-06 18:23:00,77.8,66.0,30.05,ENE,57,5.8,5.8,67,0.00,CLR,,0.00,WeatherDisplay:10.37,2013-03-06 07:23:00,
2013-03-06 18:28:00,77.8,65.5,30.05,ENE,58,4.6,4.6,66,0.00,CLR,,0.00,WeatherDisplay:10.37,2013-03-06 07:28:00,
2013-03-06 18:33:00,77.4,64.7,30.05,NE,52,5.8,5.8,65,0.00,CLR,,0.00,WeatherDisplay:10.37,2013-03-06 07:33:00,
2013-03-06 18:39:00,77.1,64.9,30.05,ENE,68,9.2,9.2,66,0.00,CLR,,0.00,WeatherDisplay:10.37,2013-03-06 07:39:00,
2013-03-06 18:44:00,76.9,65.1,30.05,ENE,59,8.0,8.0,67,0.00,CLR,,0.00,WeatherDisplay:10.37,2013-03-06 07:44:00,
2013-03-06 18:49:00,76.5,65.6,30.05,NE,39,8.1,8.1,69,0.00,CLR,,0.00,WeatherDisplay:10.37,2013-03-06 07:49:00,
2013-03-06 18:55:00,76.1,65.6,30.05,ENE,64,4.6,4.6,70,0.00,CLR,,0.00,WeatherDisplay:10.37,2013-03-06 07:55:00,
2013-03-06 19:00:00,75.8,64.9,30.05,ENE,57,5.8,5.8,69,0.00,CLR,,0.00,WeatherDisplay:10.37,2013-03-06 08:00:00,
2013-03-06 19:05:00,75.5,65.0,30.05,NE,54,4.6,4.6,70,0.00,CLR,,0.00,WeatherDisplay:10.37,2013-03-06 08:05:00,
2013-03-06 19:10:00,75.2,65.1,30.05,NNE,33,3.0,9.0,71,0.00,CLR,CLR,0.00,WeatherDisplay:10.37,2013-03-06 08:10:00,
2013-03-06 19:15:00,74.9,64.9,30.06,NNE,28,3.0,9.0,71,0.00,CLR,CLR,0.00,WeatherDisplay:10.37,2013-03-06 08:15:00,
2013-03-06 19:20:00,74.7,65.1,30.06,NE,36,2.0,9.0,72,0.00,CLR,CLR,0.00,WeatherDisplay:10.37,2013-03-06 08:20:00,
2013-03-06 19:25:00,74.5,65.3,30.06,NE,56,10.4,10.4,73,0.00,CLR,,0.00,WeatherDisplay:10.37,2013-03-06 08:25:00,
2013-03-06 19:30:00,74.4,65.6,30.06,NE,36,6.9,6.9,74,0.00,CLR,,0.00,WeatherDisplay:10.37,2013-03-06 08:30:00,
2013-03-06 19:36:00,74.2,65.4,30.06,ENE,59,4.6,4.6,74,0.00,CLR,,0.00,WeatherDisplay:10.37,2013-03-06 08:36:00,
2013-03-06 19:41:00,74.1,65.3,30.06,ENE,58,3.5,3.5,74,0.00,CLR,,0.00,WeatherDisplay:10.37,2013-03-06 08:41:00,
2013-03-06 19:46:00,74.0,65.2,30.06,NNE,23,2.3,2.3,74,0.00,CLR,,0.00,WeatherDisplay:10.37,2013-03-06 08:46:00,
2013-03-06 19:52:00,73.9,65.5,30.06,NNE,16,6.0,6.0,75,0.00,CLR,,0.00,WeatherDisplay:10.37,2013-03-06 08:52:00,
2013-03-06 19:57:00,73.8,65.8,30.06,NE,35,3.5,3.5,76,0.00,CLR,,0.00,WeatherDisplay:10.37,2013-03-06 08:57:00,
2013-03-06 20:02:00,73.7,65.7,30.06,ENE,60,4.6,4.6,76,0.00,CLR,,0.00,WeatherDisplay:10.37,2013-03-06 09:02:00,
2013-03-06 20:08:00,73.7,65.7,30.06,NNE,26,4.6,4.6,76,0.00,CLR,,0.00,WeatherDisplay:10.37,2013-03-06 09:08:00,
2013-03-06 20:13:00,73.5,65.8,30.06,North,10,4.6,4.6,77,0.00,CLR,,0.00,WeatherDisplay:10.37,2013-03-06 09:13:00,
2013-03-06 20:18:00,73.5,65.8,30.06,NE,50,8.1,8.1,77,0.00,CLR,,0.00,WeatherDisplay:10.37,2013-03-06 09:18:00,
2013-03-06 20:24:00,73.4,65.7,30.07,NE,50,4.6,4.6,77,0.00,CLR,,0.00,WeatherDisplay:10.37,2013-03-06 09:24:00,
2013-03-06 20:29:00,73.3,65.7,30.07,ENE,62,2.3,2.3,77,0.00,CLR,,0.00,WeatherDisplay:10.37,2013-03-06 09:29:00,
2013-03-06 20:34:00,73.2,65.9,30.07,NNE,26,5.8,5.8,78,0.00,CLR,,0.00,WeatherDisplay:10.37,2013-03-06 09:34:00,
2013-03-06 20:39:00,73.2,66.3,30.07,NE,40,8.1,8.1,79,0.00,CLR,,0.00,WeatherDisplay:10.37,2013-03-06 09:39:00,
2013-03-06 20:44:00,73.1,66.2,30.07,NNE,31,8.1,8.1,79,0.00,CLR,,0.00,WeatherDisplay:10.37,2013-03-06 09:44:00,
2013-03-06 20:49:00,73.1,66.6,30.08,NNE,31,4.6,4.6,80,0.00,CLR,,0.00,WeatherDisplay:10.37,2013-03-06 09:49:00,
2013-03-06 20:54:00,73.0,66.5,30.08,North,4,5.8,5.8,80,0.00,CLR,,0.00,WeatherDisplay:10.37,2013-03-06 09:54:00,
2013-03-06 21:00:00,73.0,66.8,30.08,ENE,60,4.6,4.6,81,0.00,CLR,,0.00,WeatherDisplay:10.37,2013-03-06 10:00:00,
2013-03-06 21:05:00,72.8,66.6,30.08,NE,37,3.5,3.5,81,0.00,CLR,,0.00,WeatherDisplay:10.37,2013-03-06 10:05:00,
2013-03-06 21:10:00,72.7,66.5,30.08,ENE,66,4.6,4.6,81,0.00,CLR,,0.00,WeatherDisplay:10.37,2013-03-06 10:10:00,
2013-03-06 21:15:00,72.7,66.2,30.08,NE,36,2.0,8.0,80,0.00,CLR,CLR,0.00,WeatherDisplay:10.37,2013-03-06 10:15:00,
2013-03-06 21:20:00,72.6,66.1,30.08,NNE,33,2.0,5.0,80,0.00,CLR,CLR,0.00,WeatherDisplay:10.37,2013-03-06 10:20:00,
2013-03-06 21:26:00,72.5,66.0,30.08,NE,43,3.5,3.5,80,0.00,CLR,,0.00,WeatherDisplay:10.37,2013-03-06 10:26:00,
2013-03-06 21:31:00,72.4,65.9,30.08,ENE,57,5.8,5.8,80,0.00,CLR,,0.00,WeatherDisplay:10.37,2013-03-06 10:31:00,
2013-03-06 21:36:00,72.4,65.5,30.08,NE,38,3.5,3.5,79,0.00,CLR,,0.00,WeatherDisplay:10.37,2013-03-06 10:36:00,
2013-03-06 21:41:00,72.4,65.5,30.08,NNE,23,3.5,3.5,79,0.00,CLR,,0.00,WeatherDisplay:10.37,2013-03-06 10:41:00,
2013-03-06 21:46:00,72.4,65.5,30.08,NE,48,3.5,3.5,79,0.00,CLR,,0.00,WeatherDisplay:10.37,2013-03-06 10:46:00,
2013-03-06 21:52:00,72.4,65.2,30.08,NE,53,3.5,3.5,78,0.00,CLR,,0.00,WeatherDisplay:10.37,2013-03-06 10:52:00,
2013-03-06 21:57:00,72.3,65.1,30.08,NNE,16,4.0,4.0,78,0.00,CLR,,0.00,WeatherDisplay:10.37,2013-03-06 10:57:00,
2013-03-06 22:02:00,72.3,65.1,30.08,NNE,16,2.3,2.3,78,0.00,CLR,,0.00,WeatherDisplay:10.37,2013-03-06 11:02:00,
2013-03-06 22:08:00,72.2,65.3,30.08,NNE,33,2.0,2.0,79,0.00,CLR,,0.00,WeatherDisplay:10.37,2013-03-06 11:08:00,
2013-03-06 22:13:00,72.1,65.2,30.08,NE,37,3.5,3.5,79,0.00,CLR,,0.00,WeatherDisplay:10.37,2013-03-06 11:13:00,
2013-03-06 22:18:00,72.1,65.2,30.08,NE,45,3.5,3.5,79,0.00,CLR,,0.00,WeatherDisplay:10.37,2013-03-06 11:18:00,
2013-03-06 22:23:00,72.1,65.6,30.08,NE,47,1.1,1.1,80,0.00,CLR,,0.00,WeatherDisplay:10.37,2013-03-06 11:23:00,
2013-03-06 22:29:00,72.1,65.6,30.08,NE,46,2.3,2.3,80,0.00,CLR,,0.00,WeatherDisplay:10.37,2013-03-06 11:29:00,
2013-03-06 22:34:00,72.1,65.9,30.08,NE,47,4.0,4.0,81,0.00,CLR,,0.00,WeatherDisplay:10.37,2013-03-06 11:34:00,
2013-03-06 22:39:00,72.2,66.0,30.08,NNE,23,3.5,3.5,81,0.00,CLR,,0.00,WeatherDisplay:10.37,2013-03-06 11:39:00,
2013-03-06 22:45:00,72.2,66.0,30.08,NNE,23,3.5,3.5,81,0.00,CLR,,0.00,WeatherDisplay:10.37,2013-03-06 11:45:00,
2013-03-06 22:50:00,72.3,66.1,30.08,NNE,18,3.5,3.5,81,0.00,CLR,,0.00,WeatherDisplay:10.37,2013-03-06 11:50:00,
2013-03-06 22:55:00,72.4,66.6,30.08,NE,43,4.6,4.6,82,0.00,CLR,,0.00,WeatherDisplay:10.37,2013-03-06 11:55:00,
2013-03-06 23:00:00,72.4,66.9,30.08,NNE,31,2.0,7.0,83,0.00,CLR,CLR,0.00,WeatherDisplay:10.37,2013-03-06 12:00:00,
2013-03-06 23:06:00,72.5,67.0,30.08,NNE,22,2.3,2.3,83,0.00,CLR,,0.00,WeatherDisplay:10.37,2013-03-06 12:06:00,
2013-03-06 23:11:00,72.4,66.9,30.08,North,4,2.0,2.0,83,0.00,CLR,,0.00,WeatherDisplay:10.37,2013-03-06 12:11:00,
2013-03-06 23:16:00,72.4,66.9,30.08,North,8,3.5,3.5,83,0.00,CLR,,0.00,WeatherDisplay:10.37,2013-03-06 12:16:00,
2013-03-06 23:21:00,72.3,66.8,30.08,North,10,3.5,3.5,83,0.00,CLR,,0.00,WeatherDisplay:10.37,2013-03-06 12:21:00,
2013-03-06 23:27:00,72.3,66.8,30.08,NNW,346,3.5,3.5,83,0.00,CLR,,0.00,WeatherDisplay:10.37,2013-03-06 12:27:00,
2013-03-06 23:32:00,72.2,66.7,30.08,NNE,25,1.1,0.0,83,0.00,CLR,,0.00,WeatherDisplay:10.37,2013-03-06 12:32:00,
2013-03-06 23:37:00,72.2,66.7,30.08,NNE,25,1.1,1.1,83,0.00,CLR,,0.00,WeatherDisplay:10.37,2013-03-06 12:37:00,
2013-03-06 23:42:00,72.1,66.6,30.08,NNE,25,1.1,1.1,83,0.00,CLR,,0.00,WeatherDisplay:10.37,2013-03-06 12:42:00,
2013-03-06 23:47:00,72.0,66.6,30.08,NNE,25,1.1,0.0,83,0.00,CLR,,0.00,WeatherDisplay:10.37,2013-03-06 12:47:00,
2013-03-06 23:53:00,71.9,66.5,30.08,NNE,25,3.5,3.5,83,0.00,CLR,,0.00,WeatherDisplay:10.37,2013-03-06 12:53:00,
2013-03-06 23:58:00,71.7,66.6,30.08,NNE,25,3.5,3.5,84,0.00,CLR,,0.00,WeatherDisplay:10.37,2013-03-06 12:58:00,